When you browse on this site, cookies collect data to enhance your experience and personalize the content and advertising you see.
Visit our Privacy Policy to learn more. By continuing to use the site, you agree to this use of cookies and data.
  • In Latvia
  • List of Countries
  • For 7 days
  • Water Temperature
  • Satellite Maps
  • Weather Map
  • Weather Widgets
  • user-avatar
    Login

    Hourly Weather Sevan

    Today, 19 June, Wednesday

    Time Temperature Precipitation Wind Pressure Humidity
    00:00 +17°C° 0.6 mm 2 mps 640 mmHg 70%
    01:00 +16°C° 0.2 mm 2 mps 640 mmHg 71%
    02:00 +16°C° 0.2 mm 1 mps 640 mmHg 71%
    03:00 +16°C° 0 mm 1 mps 639 mmHg 69%
    04:00 +18°C° 0 mm 1 mps 640 mmHg 69%
    05:00 +18°C° 0 mm 1 mps 640 mmHg 69%
    06:00 +19°C° 0 mm 1 mps 640 mmHg 70%
    07:00 +20°C° 0.3 mm 1 mps 641 mmHg 65%
    08:00 +22°C° 0.3 mm 1 mps 641 mmHg 61%
    09:00 +23°C° 0.3 mm 1 mps 641 mmHg 56%
    10:00 +24°C° 0.8 mm 1 mps 641 mmHg 53%
    11:00 +25°C° 0.8 mm 1 mps 641 mmHg 51%
    12:00 +26°C° 0.8 mm 2 mps 641 mmHg 48%
    13:00 +26°C° 0.9 mm 2 mps 641 mmHg 48%
    14:00 +26°C° 0.9 mm 1 mps 641 mmHg 49%
    15:00 +26°C° 0.9 mm 1 mps 641 mmHg 49%
    16:00 +25°C° 0.3 mm 2 mps 641 mmHg 52%
    17:00 +25°C° 0.3 mm 2 mps 641 mmHg 56%
    18:00 +24°C° 0.3 mm 3 mps 641 mmHg 59%
    19:00 +21°C° 0.2 mm 2 mps 641 mmHg 63%
    20:00 +20°C° 0.2 mm 2 mps 640 mmHg 66%
    21:00 +18°C° 0.2 mm 2 mps 640 mmHg 69%
    22:00 +18°C° 0.1 mm 2 mps 640 mmHg 69%
    23:00 +17°C° 0.1 mm 2 mps 640 mmHg 69%

    Tomorrow, 20 June, Thursday

    Time Temperature Precipitation Wind Pressure Humidity
    00:00 +17°C° 0.1 mm 2 mps 640 mmHg 69%
    01:00 +17°C° 0 mm 2 mps 640 mmHg 70%
    02:00 +16°C° 0 mm 2 mps 640 mmHg 71%
    03:00 +16°C° 0 mm 2 mps 640 mmHg 72%
    04:00 +17°C° 0 mm 2 mps 640 mmHg 71%
    05:00 +18°C° 0 mm 1 mps 640 mmHg 71%
    06:00 +19°C° 0 mm 1 mps 640 mmHg 70%
    07:00 +21°C° 0.2 mm 1 mps 641 mmHg 66%
    08:00 +22°C° 0.2 mm 1 mps 641 mmHg 62%
    09:00 +24°C° 0.2 mm 2 mps 641 mmHg 57%
    10:00 +24°C° 0.6 mm 2 mps 641 mmHg 54%
    11:00 +25°C° 0.6 mm 2 mps 641 mmHg 51%
    12:00 +26°C° 0.6 mm 2 mps 641 mmHg 47%
    13:00 +27°C° 0.5 mm 2 mps 641 mmHg 45%
    14:00 +27°C° 0.5 mm 2 mps 641 mmHg 43%
    15:00 +28°C° 0.5 mm 3 mps 640 mmHg 41%
    16:00 +27°C° 0.2 mm 2 mps 640 mmHg 44%
    17:00 +27°C° 0.2 mm 2 mps 640 mmHg 48%
    18:00 +26°C° 0.2 mm 2 mps 640 mmHg 51%
    19:00 +24°C° 0.1 mm 2 mps 640 mmHg 56%
    20:00 +21°C° 0.1 mm 3 mps 639 mmHg 60%
    21:00 +19°C° 0.1 mm 3 mps 639 mmHg 64%
    22:00 +19°C° 0.2 mm 3 mps 639 mmHg 65%
    23:00 +18°C° 0.2 mm 2 mps 639 mmHg 66%

    Day after tomorrow, 21 June, Friday

    Time Temperature Precipitation Wind Pressure Humidity
    00:00 +18°C° 0.2 mm 2 mps 639 mmHg 67%
    01:00 +17°C° 0.2 mm 2 mps 639 mmHg 69%
    02:00 +17°C° 0.2 mm 2 mps 639 mmHg 71%
    03:00 +16°C° 0.2 mm 2 mps 638 mmHg 73%
    04:00 +18°C° 0.5 mm 1 mps 639 mmHg 73%
    05:00 +18°C° 0.5 mm 1 mps 639 mmHg 73%
    06:00 +19°C° 0.5 mm 1 mps 639 mmHg 73%
    07:00 +20°C° 0.3 mm 1 mps 640 mmHg 68%
    08:00 +22°C° 0.3 mm 1 mps 640 mmHg 63%
    09:00 +23°C° 0.3 mm 1 mps 640 mmHg 58%
    10:00 +24°C° 0.8 mm 2 mps 640 mmHg 54%
    11:00 +26°C° 0.8 mm 2 mps 641 mmHg 50%
    12:00 +27°C° 0.8 mm 2 mps 641 mmHg 47%
    13:00 +27°C° 0.6 mm 2 mps 641 mmHg 45%
    14:00 +28°C° 0.6 mm 2 mps 641 mmHg 44%
    15:00 +28°C° 0.6 mm 2 mps 641 mmHg 43%
    16:00 +26°C° 0.7 mm 2 mps 641 mmHg 50%
    17:00 +25°C° 0.7 mm 2 mps 640 mmHg 57%
    18:00 +23°C° 0.7 mm 2 mps 640 mmHg 65%
    19:00 +21°C° 0.4 mm 2 mps 640 mmHg 67%
    20:00 +19°C° 0.4 mm 2 mps 640 mmHg 70%
    21:00 +18°C° 0.4 mm 2 mps 641 mmHg 73%
    22:00 +18°C° 0.2 mm 2 mps 641 mmHg 73%
    23:00 +17°C° 0.2 mm 2 mps 641 mmHg 73%

    22 June, Saturday

    Time Temperature Precipitation Wind Pressure Humidity
    00:00 +17°C° 0.2 mm 2 mps 640 mmHg 73%
    01:00 +17°C° 0 mm 2 mps 640 mmHg 73%
    02:00 +16°C° 0 mm 2 mps 640 mmHg 73%
    03:00 +16°C° 0 mm 2 mps 640 mmHg 74%
    04:00 +17°C° 0 mm 2 mps 640 mmHg 73%
    05:00 +18°C° 0 mm 1 mps 641 mmHg 73%
    06:00 +19°C° 0 mm 1 mps 641 mmHg 72%
    07:00 +21°C° 0 mm 1 mps 642 mmHg 67%
    08:00 +21°C° 0 mm 2 mps 642 mmHg 62%
    09:00 +24°C° 0 mm 2 mps 643 mmHg 57%
    10:00 +25°C° 0.4 mm 2 mps 643 mmHg 54%
    11:00 +26°C° 0.4 mm 2 mps 643 mmHg 51%
    12:00 +27°C° 0.4 mm 2 mps 643 mmHg 48%
    13:00 +27°C° 0.3 mm 2 mps 643 mmHg 46%
    14:00 +28°C° 0.3 mm 2 mps 642 mmHg 45%
    15:00 +28°C° 0.3 mm 2 mps 642 mmHg 43%
    16:00 +28°C° 0.3 mm 2 mps 642 mmHg 47%
    17:00 +27°C° 0.3 mm 2 mps 642 mmHg 52%
    18:00 +27°C° 0.3 mm 2 mps 642 mmHg 56%
    19:00 +25°C° 0.1 mm 2 mps 642 mmHg 58%
    20:00 +22°C° 0.1 mm 3 mps 642 mmHg 60%
    21:00 +20°C° 0.1 mm 3 mps 642 mmHg 63%
    22:00 +20°C° 0.1 mm 3 mps 642 mmHg 64%
    23:00 +19°C° 0.1 mm 3 mps 641 mmHg 66%

    23 June, Sunday

    Time Temperature Precipitation Wind Pressure Humidity
    00:00 +18°C° 0.1 mm 3 mps 641 mmHg 68%
    01:00 +18°C° 0 mm 2 mps 641 mmHg 68%
    02:00 +18°C° 0 mm 2 mps 641 mmHg 68%
    03:00 +18°C° 0 mm 2 mps 641 mmHg 68%
    04:00 +18°C° 0 mm 2 mps 642 mmHg 68%
    05:00 +19°C° 0 mm 2 mps 642 mmHg 68%
    06:00 +21°C° 0 mm 1 mps 642 mmHg 68%
    07:00 +22°C° 0.1 mm 1 mps 643 mmHg 63%
    08:00 +24°C° 0.1 mm 1 mps 643 mmHg 59%
    09:00 +26°C° 0.1 mm 1 mps 644 mmHg 54%
    10:00 +27°C° 0.2 mm 2 mps 644 mmHg 50%
    11:00 +28°C° 0.2 mm 2 mps 644 mmHg 47%
    12:00 +29°C° 0.2 mm 2 mps 644 mmHg 43%
    13:00 +29°C° 0.3 mm 2 mps 644 mmHg 41%
    14:00 +30°C° 0.3 mm 2 mps 643 mmHg 40%
    15:00 +30°C° 0.3 mm 2 mps 643 mmHg 38%
    16:00 +29°C° 0.1 mm 2 mps 643 mmHg 43%
    17:00 +29°C° 0.1 mm 2 mps 643 mmHg 48%
    18:00 +28°C° 0.1 mm 3 mps 642 mmHg 54%
    19:00 +26°C° 0.1 mm 3 mps 642 mmHg 56%
    20:00 +24°C° 0.1 mm 3 mps 642 mmHg 59%
    21:00 +21°C° 0.1 mm 3 mps 642 mmHg 62%
    22:00 +20°C° 0.1 mm 3 mps 642 mmHg 64%
    23:00 +20°C° 0.1 mm 3 mps 642 mmHg 66%

    24 June, Monday

    Time Temperature Precipitation Wind Pressure Humidity
    00:00 +19°C° 0.1 mm 2 mps 642 mmHg 68%
    01:00 +19°C° 0.2 mm 2 mps 642 mmHg 69%
    02:00 +18°C° 0.2 mm 2 mps 642 mmHg 71%
    03:00 +18°C° 0.2 mm 2 mps 642 mmHg 72%
    04:00 +19°C° 0 mm 2 mps 642 mmHg 71%
    05:00 +21°C° 0 mm 1 mps 642 mmHg 69%
    06:00 +21°C° 0 mm 1 mps 643 mmHg 68%
    07:00 +23°C° 0.1 mm 1 mps 643 mmHg 63%
    08:00 +25°C° 0.1 mm 1 mps 643 mmHg 58%
    09:00 +26°C° 0.1 mm 1 mps 644 mmHg 54%
    10:00 +27°C° 0.3 mm 1 mps 644 mmHg 50%
    11:00 +28°C° 0.3 mm 2 mps 644 mmHg 46%
    12:00 +30°C° 0.3 mm 2 mps 644 mmHg 42%
    13:00 +30°C° 0.2 mm 2 mps 644 mmHg 39%
    14:00 +31°C° 0.2 mm 1 mps 643 mmHg 37%
    15:00 +31°C° 0.2 mm 1 mps 643 mmHg 34%
    16:00 +30°C° 0.2 mm 2 mps 643 mmHg 41%
    17:00 +28°C° 0.2 mm 2 mps 642 mmHg 48%
    18:00 +27°C° 0.2 mm 3 mps 642 mmHg 55%
    19:00 +25°C° 0.1 mm 2 mps 642 mmHg 58%
    20:00 +23°C° 0.1 mm 2 mps 642 mmHg 61%
    21:00 +21°C° 0.1 mm 2 mps 642 mmHg 65%
    22:00 +20°C° 0 mm 2 mps 642 mmHg 64%
    23:00 +20°C° 0 mm 2 mps 642 mmHg 63%
    Show more